Location: Newark
(32.8397°N, 6.6947°W)
Time: 14:35:52
(UTC+00:00)

LightSail 2 - Visible Passes

Search period start: 20 November 2019 00:00
Search period end: 30 November 2019 00:00
Orbit: 699 x 728 km, 24.0° (Epoch: 20 November)

Date Brightness Start Highest point End Pass type
(mag) Time Alt. Az. Time Alt. Az. Time Alt. Az.
20 Nov 7.2 05:18:23 13° SSW 05:19:13 14° SSW 05:21:51 10° SSE visible
21 Nov 7.7 04:24:08 12° SSE 04:24:08 12° SSE 04:24:50 10° SSE visible
27 Nov 7.4 19:48:37 10° SSW 19:50:09 15° S 19:50:09 15° S visible
28 Nov 7.2 18:51:30 10° SSW 18:54:16 15° SSE 18:55:50 13° SE visible
29 Nov 7.5 17:55:00 10° S 17:56:30 11° SSE 17:58:01 10° SE visible
29 Nov 6.9 19:37:23 10° SW 19:40:29 22° S 19:40:29 22° S visible
